Date_and_time,latitude,longitude,wind_speed,RelWindDirFrom,WindDirFrom,air_pressure,air_temperature,relative_humidity,Temp,platform_speed_wrt_ground,air_pressure_at_mean_sea_level,platform_orientation
2018-10-29 00:00,50.63042,-96.980755,4.3,6.4,288,988.67,3.5,95,4.88,0.0,1016.17,360.0
2018-10-29 00:10,50.63042,-96.9807566666667,4.2,6.2,301,988.68,3.5,98,4.88,0.0,1016.19,360.0
2018-10-29 00:20,50.63042,-96.98076,4.7,8.0,317,988.67,3.5,99,4.88,0.0,1016.19,360.0
2018-10-29 00:30,50.63042,-96.980765,4.9,7.6,311,988.69,3.4,99,4.88,0.0,1016.21,360.0
2018-10-29 00:40,50.63042,-96.980765,4.3,5.8,311,988.71,3.4,99,4.88,0.0,1016.24,360.0
2018-10-29 00:50,50.63042,-96.9807633333333,3.8,5.5,309,988.88,3.4,99,4.88,0.0,1016.41,360.0
2018-10-29 01:00,50.63042,-96.9807633333333,3.6,5.8,322,988.93,3.4,99,4.89,0.0,1016.46,360.0
2018-10-29 01:10,50.63042,-96.9807633333333,3.1,5.0,344,988.85,3.4,99,4.89,0.0,1016.37,360.0
2018-10-29 01:20,50.63042,-96.980765,3.2,4.7,322,988.81,3.4,99,4.89,0.0,1016.34,360.0
2018-10-29 01:30,50.63042,-96.980765,4.0,5.3,328,988.75,3.3,99,4.90,0.0,1016.29,360.0
2018-10-29 01:40,50.6304016666667,-96.980785,3.7,6.3,340,988.71,3.3,99,4.90,0.0,1016.24,360.0
2018-10-29 01:50,50.6304016666667,-96.980785,4.5,6.3,342,988.74,3.3,99,4.91,0.0,1016.27,360.0
2018-10-29 02:00,50.6304016666667,-96.9807816666667,4.1,6.0,341,988.81,3.2,100,4.91,0.0,1016.35,216.6
2018-10-29 02:10,50.6304016666667,-96.9807783333333,3.8,5.8,326,988.90,3.1,100,4.91,0.0,1016.46,216.6
2018-10-29 02:20,50.630405,-96.9807766666667,3.2,4.5,334,989.00,3.0,100,4.91,0.0,1016.57,216.6
2018-10-29 02:30,50.630405,-96.980775,2.9,4.3,328,989.10,2.9,100,4.91,0.0,1016.67,216.6
2018-10-29 02:40,50.630405,-96.980775,3.2,4.8,315,989.16,2.8,100,4.91,0.0,1016.74,216.6
2018-10-29 02:50,50.630405,-96.980765,3.7,5.3,320,989.15,2.8,100,4.91,0.0,1016.73,216.6
2018-10-29 03:00,50.6304016666667,-96.98076,4.1,5.9,321,989.04,2.8,100,4.92,0.0,1016.62,161.1
2018-10-29 03:10,50.6303983333333,-96.9807566666667,4.5,6.2,343,989.00,2.9,100,4.92,0.0,1016.57,161.1
2018-10-29 03:20,50.630395,-96.980755,4.4,6.6,344,989.12,2.9,100,4.92,0.0,1016.70,161.1
2018-10-29 03:30,50.6303816666667,-96.9807666666667,3.8,5.9,328,989.23,2.9,100,4.91,0.0,1016.81,161.1
2018-10-29 03:40,50.6303916666667,-96.98078,2.8,4.4,323,989.36,2.9,100,4.91,0.0,1016.94,161.1
2018-10-29 03:50,50.6304366666667,-96.980795,2.1,3.2,308,989.42,2.9,100,4.91,0.0,1017.02,161.1
2018-10-29 04:00,50.6304,-96.9807683333333,1.9,3.2,309,989.45,2.9,100,4.91,0.0,1017.05,161.1
2018-10-29 04:10,50.6303966666667,-96.98077,2.9,3.8,312,989.43,2.9,100,4.91,0.0,1017.03,161.1
2018-10-29 04:20,50.6304,-96.980775,2.5,3.6,324,989.47,2.9,100,4.91,0.0,1017.09,161.1
2018-10-29 04:30,50.630415,-96.98078,2.8,4.0,349,989.46,2.9,100,4.92,0.0,1017.07,161.1
2018-10-29 04:40,50.6304083333333,-96.9807833333333,2.3,3.4,13,989.43,2.9,100,4.91,0.0,1017.04,161.1
2018-10-29 04:50,50.63043,-96.9807766666667,1.7,2.7,1,989.39,2.9,100,4.91,0.0,1017.00,161.1
2018-10-29 05:00,50.6304216666667,-96.9807816666667,1.7,3.0,351,989.37,2.9,100,4.91,0.0,1016.99,18.9
2018-10-29 05:10,50.630425,-96.98078,3.1,4.8,2,989.36,2.9,100,4.90,0.0,1016.97,18.9
2018-10-29 05:20,50.630425,-96.9807766666667,4.2,5.6,354,989.35,2.8,100,4.90,0.0,1016.96,18.9
2018-10-29 05:30,50.63043,-96.980775,4.4,5.8,357,989.36,2.8,100,4.90,0.0,1016.97,18.9
2018-10-29 05:40,50.6304216666667,-96.9807733333333,6.3,8.5,4,989.33,2.8,100,4.90,0.0,1016.94,18.9
2018-10-29 05:50,50.63044,-96.9807683333333,7.6,9.3,9,989.23,2.9,100,4.90,0.0,1016.84,18.9
2018-10-29 06:00,50.6304333333333,-96.9807583333333,4.9,7.9,348,989.44,2.8,100,4.89,0.0,1017.06,9.8
2018-10-29 06:10,50.6304283333333,-96.9807616666667,3.7,5.4,330,989.53,2.7,100,4.87,0.0,1017.15,9.8
2018-10-29 06:20,50.6304266666667,-96.980765,3.6,5.0,335,989.55,2.6,100,4.86,0.0,1017.18,9.8
2018-10-29 06:30,50.6304233333333,-96.9807616666667,3.8,4.8,323,989.72,2.6,100,4.86,0.0,1017.35,9.8
2018-10-29 06:40,50.63041,-96.9807816666667,3.6,5.0,308,989.88,2.5,100,4.84,0.0,1017.53,9.8
2018-10-29 06:50,50.630405,-96.9807766666667,3.4,5.0,308,989.87,2.5,100,4.84,0.0,1017.52,9.8
2018-10-29 07:00,50.6304233333333,-96.98078,3.1,4.5,307,989.82,2.5,100,4.84,0.0,1017.47,332.6
2018-10-29 07:10,50.6304166666667,-96.980785,2.6,4.4,318,989.72,2.5,100,4.83,0.0,1017.37,332.6
2018-10-29 07:20,50.6304216666667,-96.980755,2.5,3.4,307,989.61,2.4,100,4.84,0.0,1017.26,332.6
2018-10-29 07:30,50.6304133333333,-96.9807633333333,2.5,3.5,280,989.61,2.4,100,4.84,0.0,1017.25,332.6
2018-10-29 07:40,50.6304133333333,-96.980765,2.6,3.7,263,989.65,2.4,100,4.84,0.0,1017.29,332.6
2018-10-29 07:50,50.6304133333333,-96.980765,2.8,4.0,280,989.62,2.4,100,4.84,0.0,1017.27,332.6
2018-10-29 08:00,50.6304416666667,-96.98074,2.9,4.0,278,989.61,2.4,100,4.85,0.0,1017.26,52.4
2018-10-29 08:10,50.6304116666667,-96.9807533333333,2.6,3.8,284,989.59,2.4,100,4.85,0.0,1017.25,52.4
2018-10-29 08:20,50.63042,-96.9807516666667,2.4,3.3,292,989.67,2.4,100,4.84,0.0,1017.33,52.4
2018-10-29 08:30,50.63042,-96.98075,1.7,3.0,313,989.66,2.5,100,4.84,0.0,1017.32,52.4
2018-10-29 08:40,50.6304216666667,-96.9807533333333,1.2,1.9,322,989.63,2.5,100,4.84,0.0,1017.29,52.4
2018-10-29 08:50,50.6304233333333,-96.9807516666667,1.2,2.1,324,989.55,2.5,100,4.84,0.0,1017.20,52.4
2018-10-29 09:00,50.630425,-96.9807516666667,0.3,1.1,325,989.46,2.5,100,4.83,0.0,1017.11,131.7
2018-10-29 09:10,50.630425,-96.9807516666667,0.0,0.4,0,989.45,2.4,100,4.83,0.0,1017.11,131.7
2018-10-29 09:20,50.630425,-96.98075,0.3,1.1,231,989.46,2.4,100,4.83,0.0,1017.12,131.7
2018-10-29 09:30,50.6304266666667,-96.9807516666667,0.8,2.1,246,989.44,2.4,100,4.84,0.0,1017.10,131.7
2018-10-29 09:40,50.630425,-96.9807516666667,0.3,1.0,229,989.32,2.4,100,4.84,0.0,1016.98,131.7
2018-10-29 09:50,50.6304266666667,-96.9807533333333,0.0,0.0,0,989.26,2.3,100,4.84,0.0,1016.92,131.7
2018-10-29 10:00,50.6304183333333,-96.9807833333333,0.3,1.9,120,989.18,2.7,100,4.84,0.0,1016.82,360.0
2018-10-29 10:10,50.6304316666667,-96.9807966666667,0.8,2.1,123,989.08,3.0,100,4.84,0.0,1016.70,360.0
2018-10-29 10:20,50.6304216666667,-96.9807783333333,0.7,1.9,171,989.14,2.3,100,4.84,0.0,1016.80,360.0
2018-10-29 10:30,50.6304033333333,-96.9807616666667,1.0,1.8,180,989.20,2.4,100,4.84,0.0,1016.85,360.0
2018-10-29 10:40,50.6304083333333,-96.98076,2.1,3.4,139,989.04,2.5,100,4.84,0.0,1016.67,360.0
2018-10-29 10:50,50.6304183333333,-96.9807583333333,2.2,3.3,128,989.03,2.9,100,4.84,0.0,1016.65,360.0
2018-10-29 11:00,50.6304233333333,-96.9807566666667,2.0,2.9,167,989.15,2.4,100,4.85,0.0,1016.80,223.4
2018-10-29 11:10,50.6304233333333,-96.9807616666667,2.7,3.8,174,989.20,2.4,100,4.84,0.0,1016.85,223.4
2018-10-29 11:20,50.6304266666667,-96.9807583333333,2.8,3.8,185,989.20,2.4,101,4.84,0.0,1016.86,223.4
2018-10-29 11:30,50.630425,-96.9807533333333,2.1,2.9,180,989.17,2.4,101,4.84,0.0,1016.83,223.4
2018-10-29 11:40,50.6304283333333,-96.98075,3.1,3.7,181,989.15,2.4,101,4.84,0.0,1016.81,223.4
2018-10-29 11:50,50.6304216666667,-96.9807866666667,3.3,4.0,173,989.02,2.4,101,4.84,0.0,1016.66,223.4
2018-10-29 12:00,50.6304116666667,-96.9807583333333,3.5,4.9,176,989.05,2.5,101,4.84,0.0,1016.67,194.5
2018-10-29 12:10,50.6304166666667,-96.98075,4.4,5.5,180,988.93,2.5,101,4.84,0.0,1016.58,194.5
2018-10-29 12:20,50.6304183333333,-96.980755,4.2,5.1,182,988.82,2.4,101,4.83,0.0,1016.47,194.5
2018-10-29 12:30,50.630415,-96.980755,3.2,4.6,197,988.89,2.5,101,4.83,0.0,1016.53,194.5
2018-10-29 12:40,50.630415,-96.9807566666667,3.9,4.8,184,988.83,2.4,101,4.83,0.0,1016.45,194.5
2018-10-29 12:50,50.6304366666667,-96.9807866666667,3.8,4.7,188,988.76,2.4,101,4.82,0.0,1016.41,194.5
2018-10-29 13:00,50.63043,-96.980775,3.7,4.8,195,988.79,2.4,101,4.81,0.0,1016.44,36.6
2018-10-29 13:10,50.6304266666667,-96.9807733333333,4.5,5.9,185,988.71,2.3,101,4.81,0.0,1016.35,36.6
2018-10-29 13:20,50.6304433333333,-96.9807783333333,4.5,5.4,192,988.78,2.3,101,4.82,0.0,1016.43,36.6
2018-10-29 13:30,50.630435,-96.98077,4.9,6.5,189,988.76,2.3,101,4.82,0.0,1016.41,36.6
2018-10-29 13:40,50.6304333333333,-96.9807716666667,5.8,7.0,185,988.74,2.3,101,4.82,0.0,1016.39,36.6
2018-10-29 13:50,50.6304333333333,-96.98077,5.0,6.7,175,988.64,2.3,101,4.83,0.0,1016.29,36.6
2018-10-29 14:00,50.6304266666667,-96.9807533333333,4.7,6.0,180,988.69,2.5,101,4.83,0.0,1016.32,90.0
2018-10-29 14:10,50.6304133333333,-96.9807516666667,4.6,6.4,192,988.76,2.6,100,4.83,0.0,1016.39,90.0
2018-10-29 14:20,50.6304266666667,-96.9807483333333,3.9,5.4,182,988.72,2.7,100,4.83,0.0,1016.34,90.0
2018-10-29 14:30,50.630435,-96.9807683333333,5.5,7.5,161,988.50,2.7,100,4.82,0.0,1016.12,90.0
2018-10-29 14:40,50.6304283333333,-96.9807633333333,6.9,8.9,158,988.33,2.8,100,4.82,0.0,1015.94,90.0
2018-10-29 14:50,50.6304316666667,-96.98076,7.4,9.1,154,988.24,2.8,100,4.82,0.0,1015.85,90.0
2018-10-29 15:00,50.6279,-96.9733116666667,10.4,15.3,150,988.09,3.5,100,4.78,1.9,1015.66,118.0
2018-10-29 15:10,50.62817,-96.9300416666667,17.3,19.7,130,987.88,3.3,100,4.53,9.9,1015.46,118.0
2018-10-29 15:20,50.6358316666667,-96.886935,15.6,20.2,125,988.03,3.3,100,4.38,10.2,1015.61,118.0
2018-10-29 15:30,50.6619816666667,-96.8594716666667,8.7,11.6,94,988.44,3.3,100,4.36,11.3,1016.04,118.0
2018-10-29 15:40,50.688515,-96.8328816666667,8.8,10.7,89,988.45,3.3,100,4.55,11.3,1016.04,118.0
2018-10-29 15:50,50.7150633333333,-96.8066183333333,8.8,11.4,91,988.37,3.3,100,4.76,11.3,1015.95,118.0
2018-10-29 16:00,50.7415633333333,-96.7799933333333,8.7,11.0,94,988.31,3.4,100,4.77,11.3,1015.87,48.8
2018-10-29 16:10,50.768125,-96.7534516666667,9.0,10.8,101,988.21,3.4,100,4.72,11.3,1015.77,48.8
2018-10-29 16:20,50.7854366666667,-96.7360466666667,7.9,11.6,128,988.16,3.6,100,4.72,7.4,1015.72,48.8
2018-10-29 16:30,50.785985,-96.7365683333333,10.6,12.6,169,988.13,3.4,100,4.75,0.2,1015.69,48.8
2018-10-29 16:40,50.7866466666667,-96.73684,12.3,14.6,172,987.92,3.4,100,4.77,0.2,1015.47,48.8
2018-10-29 16:50,50.7900433333333,-96.7341783333333,11.2,14.8,170,987.97,4.1,99,4.79,1.4,1015.46,48.8
2018-10-29 17:00,50.7904783333333,-96.7342683333333,11.5,13.5,166,987.70,3.7,100,4.82,0.2,1015.21,44.2
2018-10-29 17:10,50.7894883333333,-96.731525,12.5,15.6,163,987.52,3.6,100,4.83,0.7,1015.03,44.2
2018-10-29 17:20,50.7854916666667,-96.7389333333333,12.5,17.0,170,987.62,3.5,100,4.80,2.2,1015.13,44.2
2018-10-29 17:30,50.7877183333333,-96.7403883333333,11.2,13.1,168,987.65,3.5,99,4.80,0.9,1015.16,44.2
2018-10-29 17:40,50.789955,-96.7408466666667,10.2,12.1,167,987.48,3.5,99,4.84,0.8,1014.98,44.2
2018-10-29 17:50,50.786945,-96.7359283333333,13.5,17.6,158,987.20,3.9,94,4.85,1.6,1014.67,44.2
2018-10-29 18:00,50.789285,-96.735885,11.7,14.5,170,987.36,4.1,93,4.83,0.8,1014.82,42.9
2018-10-29 18:10,50.787185,-96.74004,12.7,15.8,170,987.06,3.9,89,4.85,1.2,1014.52,42.9
2018-10-29 18:20,50.7663116666667,-96.7643583333333,19.0,22.6,186,986.39,3.9,91,4.83,9.3,1013.84,42.9
2018-10-29 18:30,50.7412583333333,-96.791995,20.5,22.6,187,986.12,3.8,93,4.78,11.0,1013.57,42.9
2018-10-29 18:40,50.7156716666667,-96.8183766666667,21.3,23.6,185,985.87,4.0,88,4.83,11.0,1013.27,42.9
2018-10-29 18:50,50.6897483333333,-96.8440633333333,20.2,22.8,180,985.91,4.0,88,4.84,11.0,1013.32,42.9
2018-10-29 19:00,50.66217,-96.8628683333333,19.5,22.0,174,985.84,4.0,92,4.82,10.8,1013.26,213.5
2018-10-29 19:10,50.6368933333333,-96.8868166666667,17.7,23.0,181,985.90,3.9,94,4.51,10.6,1013.33,213.5
2018-10-29 19:20,50.6281033333333,-96.9293016666667,12.5,17.6,213,986.33,4.0,96,4.38,10.2,1013.77,213.5
2018-10-29 19:30,50.628135,-96.97624,10.6,12.9,224,986.47,4.1,95,4.38,10.7,1013.90,213.5
2018-10-29 19:40,50.6304516666667,-96.9807733333333,9.3,13.2,148,986.17,5.9,83,4.61,1.3,1013.49,213.5
2018-10-29 19:50,50.6304466666667,-96.9807683333333,10.6,13.3,138,985.97,4.8,90,4.78,0.0,1013.32,213.5
2018-10-29 20:00,50.630445,-96.9807866666667,12.2,14.6,143,985.86,4.2,92,4.81,0.0,1013.25,224.4
2018-10-29 20:10,50.6304533333333,-96.9807866666667,11.9,13.9,149,985.95,4.1,92,4.82,0.0,1013.35,224.4
2018-10-29 20:20,50.6304533333333,-96.9807833333333,11.5,13.8,148,985.99,4.1,93,4.83,0.0,1013.40,224.4
2018-10-29 20:30,50.6304533333333,-96.9807783333333,11.6,13.5,148,985.96,4.1,93,4.84,0.0,1013.36,224.4
2018-10-29 20:40,50.630455,-96.98078,11.8,14.0,147,985.87,4.0,94,4.84,0.0,1013.26,224.4
2018-10-29 20:50,50.630455,-96.9807783333333,12.3,14.5,143,985.76,4.0,94,4.85,0.0,1013.15,224.4
2018-10-29 21:00,50.6304533333333,-96.9807783333333,12.8,15.2,143,985.60,4.0,94,4.86,0.0,1013.00,224.4
2018-10-29 21:10,50.6304533333333,-96.9807783333333,13.1,15.4,145,985.52,4.1,92,4.87,0.0,1012.91,224.4
2018-10-29 21:20,50.6304516666667,-96.9807783333333,11.9,15.7,139,985.44,4.2,93,4.87,0.0,1012.81,224.4
2018-10-29 21:30,50.6304516666667,-96.980775,13.8,16.0,141,985.39,4.0,92,4.87,0.0,1012.68,224.4
2018-10-29 21:40,50.6304533333333,-96.980775,13.4,15.7,141,985.33,4.0,94,4.87,0.0,1012.68,224.4
2018-10-29 21:50,50.6304533333333,-96.980775,12.2,17.2,133,985.19,4.2,95,4.87,0.0,1012.55,224.4
2018-10-29 22:00,50.6304533333333,-96.980775,12.7,16.3,135,985.12,4.1,94,4.87,0.0,1012.49,247.1
2018-10-29 22:10,50.6304516666667,-96.980775,12.3,16.5,132,985.05,4.2,94,4.87,0.0,1012.42,247.1
2018-10-29 22:20,50.6304183333333,-96.9807816666667,11.6,16.7,132,984.93,4.2,94,4.87,0.0,1012.30,247.1
2018-10-29 22:30,50.630455,-96.9807683333333,11.9,15.3,131,984.76,4.3,95,4.87,0.0,1012.11,247.1
2018-10-29 22:40,50.6304433333333,-96.98077,13.3,16.8,130,984.58,4.2,96,4.87,0.0,1011.94,247.1
2018-10-29 22:50,50.6304466666667,-96.9807683333333,12.5,17.2,133,984.46,4.1,96,4.87,0.0,1011.82,247.1
2018-10-29 23:00,50.6304466666667,-96.9807666666667,12.7,16.5,136,984.35,4.0,96,4.87,0.0,1011.71,72.3
2018-10-29 23:10,50.6304466666667,-96.9807683333333,12.5,16.3,135,984.25,3.9,95,4.87,0.0,1011.60,72.3
2018-10-29 23:20,50.6304466666667,-96.9807666666667,12.5,16.0,139,984.30,3.8,96,4.87,0.0,1011.66,72.3
2018-10-29 23:30,50.6304483333333,-96.9807683333333,11.4,14.2,154,984.62,3.7,95,4.87,0.0,1012.00,72.3
